Mountain Home, ID

9:17 AM MDT on May 25, 2017 (GMT -0600)
Mountain Home Air Force Base

Weather History for KMUO - November, 2013

Change the Weather History Date:

Wednesday, November 27, 2013

  Actual Average Record
Temperature  
Mean Temperature 35 °F 34 °F  
Max Temperature 46 °F 42 °F 72 °F (1949)
Min Temperature 24 °F 24 °F -10 °F (1919)
Degree Days  
Heating Degree Days 30 31  
Month to date heating degree days 711 689  
Cooling Degree Days 0 0  
Month to date cooling degree days 0 0  
Moisture  
Dew Point 26 °F    
Average Humidity 77    
Maximum Humidity 99    
Minimum Humidity 46    
Precipitation  
Precipitation 0.00 in 0.04 in 0.70 in (1962)
Month to date precipitation 0.32 1.12  
Sea Level Pressure  
Sea Level Pressure 30.18 in    
Wind  
Wind Speed 5 mph (NE)    
Max Wind Speed 7 mph    
Max Gust Speed -    
Visibility 10 miles    
Events      
T = Trace of Precipitation, MM = Missing Value Source: NWS Daily Summary

Daily Weather History Graph

Daily Weather History Graph

Search for Another Location

Airport or City:

Trip Planner

Search our weather history database for the weather conditions in past years. The results will help you decide how hot, cold, wet, or windy it might be!

Date:

Astronomy

Nov. 27, 2013 Rise Set
Actual Time 7:51 AM MST 5:11 PM MST
Civil Twilight 7:19 AM MST 5:42 PM MST
Nautical Twilight 6:44 AM MST 6:17 PM MST
Astronomical Twilight 6:10 AM MST 6:51 PM MST
Moon 1:49 AM MST (11/27) 1:58 PM MST (11/27)
Length of Visible Light 10h 23m
Length of Day
9h 20m
Waning Crescent, 31% of the Moon is Illuminated
Nov 27
Waning Crescent
Dec 2
New
Dec 9
First Quarter
Dec 17
Full
Dec 25
Last Quarter

Hourly Weather History & Observations

Time (MST) Temp. Windchill Dew Point Humidity Pressure Visibility Wind Dir Wind Speed Gust Speed Precip Events Conditions
12:58 AM 30.7 °F 24.1 °F 25.5 °F 81% 30.23 in 10.0 mi East 6.9 mph - N/A   Clear
1:58 AM 28.0 °F 21.7 °F 23.9 °F 84% 30.22 in 10.0 mi North 5.8 mph - N/A   Clear
2:58 AM 27.5 °F 21.1 °F 24.1 °F 87% 30.22 in 10.0 mi NE 5.8 mph - N/A   Clear
3:58 AM 24.8 °F 19.1 °F 23.0 °F 93% 30.21 in 10.0 mi ENE 4.6 mph - N/A   Clear
4:58 AM 23.5 °F 17.6 °F 23.4 °F 99% 30.23 in 10.0 mi East 4.6 mph - N/A   Clear
5:58 AM 23.5 °F 19.1 °F 23.0 °F 98% 30.23 in 10.0 mi East 3.5 mph - N/A   Partly Cloudy
6:58 AM 25.7 °F 20.1 °F 23.2 °F 90% 30.23 in 10.0 mi East 4.6 mph - N/A   Clear
7:58 AM 23.7 °F - 23.0 °F 97% 30.23 in 10.0 mi ENE 2.3 mph - N/A   Clear
8:58 AM 26.6 °F 21.2 °F 25.3 °F 95% 30.25 in 10.0 mi ENE 4.6 mph - N/A   Clear
9:58 AM 32.7 °F 28.3 °F 27.5 °F 81% 30.24 in 10.0 mi East 4.6 mph - N/A   Clear
10:58 AM 38.1 °F 33.7 °F 25.3 °F 60% 30.21 in 10.0 mi East 5.8 mph - N/A   Partly Cloudy
11:58 AM 40.5 °F 35.8 °F 26.1 °F 57% 30.19 in 10.0 mi SE 6.9 mph - N/A   Partly Cloudy
12:58 PM 42.4 °F 38.8 °F 26.2 °F 53% 30.15 in 10.0 mi SE 5.8 mph - N/A   Clear
1:58 PM 44.4 °F - 25.9 °F 48% 30.13 in 10.0 mi Calm Calm - N/A   Clear
2:58 PM 45.7 °F 44.4 °F 26.2 °F 47% 30.12 in 10.0 mi SW 3.5 mph - N/A   Clear
3:58 PM 45.9 °F 43.6 °F 26.2 °F 46% 30.11 in 10.0 mi WSW 4.6 mph - N/A   Clear
4:58 PM 41.2 °F 39.2 °F 25.9 °F 55% 30.13 in 10.0 mi West 3.5 mph - N/A   Clear
5:58 PM 36.9 °F 33.1 °F 26.8 °F 67% 30.13 in 10.0 mi NNW 4.6 mph - N/A   Clear
6:58 PM 36.3 °F 31.6 °F 27.9 °F 71% 30.13 in 10.0 mi NNE 5.8 mph - N/A   Clear
7:58 PM 36.3 °F - 28.0 °F 72% 30.14 in 10.0 mi North 1.2 mph - N/A   Clear
8:58 PM 30.2 °F - 27.5 °F 90% 30.15 in 10.0 mi Calm Calm - N/A   Partly Cloudy
9:58 PM 29.1 °F - 27.0 °F 92% 30.14 in 10.0 mi North 1.2 mph - N/A   Clear
10:58 PM 29.1 °F - 27.5 °F 94% 30.14 in 10.0 mi North 2.3 mph - N/A   Clear
11:58 PM 27.9 °F 24.0 °F 26.6 °F 95% 30.14 in 10.0 mi North 3.5 mph - N/A   Clear